Regional Weather Roundup
Issued by NWS

Home | Current Version | Previous Version | Graphics & Text | Print | Product List | Glossary On
Versions: 1 2 3 4 5 6 7 8 9 10 11 12 13 14 15 16 17 18 19 20 21 22 23 24 25 26 27 28 29 30 31 32 33 34 35 36 37 38 39 40 41 42 43 44 45 46 47 48 49 50
000
ASUS43 KDMX 211307
RWRIA

WEATHER ROUNDUP FOR IOWA
NATIONAL WEATHER SERVICE DES MOINES IA
800 AM CDT MON JUL 21 2014

NOTE: "FAIR" INDICATES FEW OR NO CLOUDS BELOW 12,000 FEET WITH NO
SIGNIFICANT WEATHER AND/OR OBSTRUCTIONS TO VISIBILITY.

* - THESE STATIONS ARE NOT NWS STATIONS...THUS NOT UNDER NWS
QUALITY CONTROL.  THEY ALSO DO NOT REPORT WEATHER SUCH
AS PRECIPITATION OR FOG.

IAZ001>003-012>014-020>022-031>034-043>046-211400-
   NORTHWEST IOWA

CITY           SKY/WX    TMP DP  RH WIND       PRES   REMARKS
CARROLL *      SUNNY     75  70  83 S12       29.90R
CHEROKEE *     SUNNY     73  72  94 S7        29.87R
DENISON *      SUNNY     73  70  88 S10G17    29.87R
LE MARS *      SUNNY     75  72  88 S9        29.84S
ORANGE CITY *  SUNNY     75  70  83 S8        29.85S
SHELDON *      SUNNY     73  70  88 SE9       29.85S
SIOUX CITY     SUNNY     75  70  84 SE10      29.82S
SPENCER        SUNNY     73  68  84 SE10      29.88S
STORM LAKE *   SUNNY     72  72 100 S10       29.90R
$$

IAZ055>058-069>071-079>083-090>094-211400-
   SOUTHWEST IOWA

CITY           SKY/WX    TMP DP  RH WIND       PRES   REMARKS
ATLANTIC *     SUNNY     73  70  88 S10       29.90R
AUDUBON *      SUNNY     75  72  88 S12       29.91S
CLARINDA *     SUNNY     75  70  83 S9G17     29.92S
COUNCIL BLFS * SUNNY     73  72  94 SE10      29.86S
CRESTON *      SUNNY     73  68  83 S17G23    29.94R
HARLAN  *      CLOUDY    73  70  88 S12       29.92S
LAMONI         SUNNY     71  67  87 S13       29.97R
RED OAK *      SUNNY     75  70  83 S10G17    29.89S
SHENANDOAH *   SUNNY     75  70  83 S12G18    29.90R
$$

IAZ047>049-059>061-072>074-084-211400-
   CENTRAL IOWA

CITY           SKY/WX    TMP DP  RH WIND       PRES   REMARKS
AMES           SUNNY     71  67  87 SE9       29.94R
ANKENY *       SUNNY     73  68  83 S13       29.94R
CHARITON *     MOSUNNY   72  66  83 S14       29.97S
DES MOINES     MOSUNNY   75  66  73 S12       29.94R
GRINNELL*      SUNNY     72  64  78 SE10      29.99R
KNOXVILLE *    CLOUDY    73  66  78 S15       29.95S
MARSHALLTOWN   SUNNY     71  66  84 SE9       29.96R
PELLA *        PTSUNNY   72  66  83 SE7       29.98S
PERRY *          N/A     73  68  83 S9        29.92S
$$

IAZ004>006-015-016-023>025-035-036-211400-
   NORTH CENTRAL IOWA

CITY           SKY/WX    TMP DP  RH WIND       PRES   REMARKS
ALGONA *       SUNNY     72  68  88 S12       29.92R
CLARION *      SUNNY     73  68  83 S14       29.93R
ESTHERVILLE    SUNNY     71  67  87 S13       29.90R
FORT DODGE *   MOSUNNY   73  66  78 S8        29.92S
MASON CITY     PTSUNNY   72  67  84 SE9       29.96R
FOREST CITY *  SUNNY     72  68  88 E7        29.95R
IOWA FALLS *     N/A     72  66  83 S10G16    29.96R
$$

IAZ007>011-017>019-026>030-037>042-050>054-066-211400-
   NORTHEAST IOWA

CITY           SKY/WX    TMP DP  RH WIND       PRES   REMARKS
CEDAR RAPIDS   SUNNY     70  63  78 S8        30.02R
CHARLES CITY * MOSUNNY   70  66  88 SE10      29.98S
DECORAH *      CLOUDY    70  66  88 S8        30.00R
DUBUQUE        CLOUDY    67  63  87 S7        30.06R
MONTICELLO *   CLOUDY    68  64  88 SE7       30.04R
OELWEIN *      PTSUNNY   70  68  94 SE12      30.01R
WATERLOO       SUNNY     71  65  81 SE10      29.97R
$$

IAZ064-065-067-068-078-211400-
   EAST CENTRAL IOWA

CITY           SKY/WX    TMP DP  RH WIND       PRES   REMARKS
DAVENPORT      SUNNY     70  62  76 S9        30.07R
IOWA CITY      SUNNY     69  65  86 SE8       30.04R
MT. PLEASANT * SUNNY     70  63  78 S5        30.05R
MUSCATINE *    SUNNY     70  64  83 SE8       30.05R
QUAD CITIES    SUNNY     70  62  76 S3        30.06R
$$

IAZ062-063-075>077-085>089-095>099-211400-
   SOUTHEAST IOWA

CITY           SKY/WX    TMP DP  RH WIND       PRES   REMARKS
BURLINGTON     SUNNY     70  64  81 S7        30.06R
FAIRFIELD *    SUNNY     72  64  78 S9G15     30.02S
FORT MADISON * SUNNY     72  66  83 S5        30.06R
KEOKUK *       SUNNY     72  64  78 S7        30.05R
OSKALOOSA *      N/A     70  66  88 S10       30.00S
OTTUMWA        SUNNY     71  65  81 S10       29.99S
WASHINGTON *   SUNNY     70  66  88 S9        30.03R
$$

ABBREVIATIONS USED IN REMARKS
   TC - TEMPERATURES IN CELSIUS
  WCI - WIND CHILL INDEX
   HX - HEAT INDEX
  VSB - VISIBILITY
$$



USA.gov is the U.S. government's official web portal to all federal, state and local government web resources and services.